Time,TemperatureF,DewpointF,PressureIn,WindDirection,WindDirectionDegrees,WindSpeedMPH,WindSpeedGustMPH,Humidity,HourlyPrecipIn,Conditions,Clouds,dailyrainin,SoftwareType,DateUTC
2013-03-22 00:03:00,32.2,28.7,30.06,SW,225,0.0,0.0,87,0.00,RA,FEW,0.00,WeatherDisplay:10.37,2013-03-22 07:03:00,
2013-03-22 00:08:00,32.2,28.7,30.05,SW,225,0.0,0.0,87,0.00,RA,FEW,0.00,WeatherDisplay:10.37,2013-03-22 07:08:00,
2013-03-22 00:13:00,32.2,28.7,30.06,SW,225,0.0,0.0,87,0.00,CLR,FEW,0.00,WeatherDisplay:10.37,2013-03-22 07:13:00,
2013-03-22 00:18:00,32.2,28.7,30.05,SW,225,0.0,0.0,87,0.00,CLR,FEW,0.00,WeatherDisplay:10.37,2013-03-22 07:18:00,
2013-03-22 00:23:00,32.2,28.7,30.05,SW,225,0.0,0.0,87,0.00,CLR,FEW,0.00,WeatherDisplay:10.37,2013-03-22 07:23:00,
2013-03-22 00:28:00,32.2,29.0,30.06,SW,225,0.0,0.0,88,0.00,CLR,FEW,0.00,WeatherDisplay:10.37,2013-03-22 07:28:00,
2013-03-22 00:33:00,31.8,28.7,30.05,SW,225,0.0,0.0,88,0.00,CLR,FEW,0.00,WeatherDisplay:10.37,2013-03-22 07:33:00,
2013-03-22 00:38:00,31.8,28.7,30.06,SW,225,0.0,0.0,88,0.00,CLR,FEW,0.00,WeatherDisplay:10.37,2013-03-22 07:38:00,
2013-03-22 00:43:00,31.8,28.7,30.05,SW,225,0.0,0.0,88,0.00,CLR,FEW,0.00,WeatherDisplay:10.37,2013-03-22 07:43:00,
2013-03-22 00:48:00,31.8,28.7,30.05,SW,225,0.0,0.0,88,0.00,CLR,FEW,0.00,WeatherDisplay:10.37,2013-03-22 07:48:00,
2013-03-22 00:53:00,31.8,28.7,30.05,SW,225,0.0,0.0,88,0.00,CLR,FEW,0.00,WeatherDisplay:10.37,2013-03-22 07:53:00,
2013-03-22 00:58:00,31.8,28.7,30.05,SW,225,0.0,0.0,88,0.00,CLR,FEW,0.00,WeatherDisplay:10.37,2013-03-22 07:58:00,
2013-03-22 01:03:00,31.8,28.7,30.04,SW,225,0.0,0.0,88,0.00,CLR,FEW,0.00,WeatherDisplay:10.37,2013-03-22 08:03:00,
2013-03-22 01:08:00,31.8,28.7,30.04,SW,225,0.0,0.0,88,0.00,CLR,FEW,0.00,WeatherDisplay:10.37,2013-03-22 08:08:00,
2013-03-22 01:13:00,31.8,28.7,30.04,SW,225,0.0,0.0,88,0.00,CLR,FEW,0.00,WeatherDisplay:10.37,2013-03-22 08:13:00,
2013-03-22 01:18:00,31.8,28.7,30.04,SW,225,0.0,0.0,88,0.00,CLR,FEW,0.00,WeatherDisplay:10.37,2013-03-22 08:18:00,
2013-03-22 01:23:00,31.6,28.5,30.04,SW,225,0.0,0.0,88,0.00,CLR,FEW,0.00,WeatherDisplay:10.37,2013-03-22 08:23:00,
2013-03-22 01:28:00,31.6,28.5,30.05,SW,225,0.0,0.0,88,0.00,CLR,FEW,0.00,WeatherDisplay:10.37,2013-03-22 08:28:00,
2013-03-22 01:33:00,31.6,28.5,30.04,SW,225,0.0,0.0,88,0.00,CLR,FEW,0.00,WeatherDisplay:10.37,2013-03-22 08:33:00,
2013-03-22 01:38:00,31.6,28.5,30.04,SW,225,0.0,0.0,88,0.00,CLR,FEW,0.00,WeatherDisplay:10.37,2013-03-22 08:38:00,
2013-03-22 01:43:00,31.6,28.5,30.04,SW,225,0.0,0.0,88,0.00,CLR,FEW,0.00,WeatherDisplay:10.37,2013-03-22 08:43:00,
2013-03-22 01:48:00,31.6,28.5,30.04,SW,225,0.0,0.0,88,0.00,CLR,FEW,0.00,WeatherDisplay:10.37,2013-03-22 08:48:00,
2013-03-22 01:53:00,31.6,28.5,30.05,SW,225,0.0,0.0,88,0.00,CLR,FEW,0.00,WeatherDisplay:10.37,2013-03-22 08:53:00,
2013-03-22 01:58:00,31.6,28.5,30.05,SW,225,0.0,0.0,88,0.00,CLR,FEW,0.00,WeatherDisplay:10.37,2013-03-22 08:58:00,
2013-03-22 02:03:00,31.6,28.5,30.05,SW,225,0.0,0.0,88,0.00,CLR,FEW,0.00,WeatherDisplay:10.37,2013-03-22 09:03:00,
2013-03-22 02:08:00,31.6,28.5,30.05,SW,225,0.0,0.0,88,0.00,CLR,FEW,0.00,WeatherDisplay:10.37,2013-03-22 09:08:00,
2013-03-22 02:13:00,31.6,28.5,30.05,SW,225,0.0,0.0,88,0.00,CLR,FEW,0.00,WeatherDisplay:10.37,2013-03-22 09:13:00,
2013-03-22 02:18:00,31.8,28.7,30.05,SW,225,0.0,0.0,88,0.00,CLR,FEW,0.00,WeatherDisplay:10.37,2013-03-22 09:18:00,
2013-03-22 02:23:00,31.8,28.7,30.05,SW,225,0.0,0.0,88,0.00,CLR,FEW,0.00,WeatherDisplay:10.37,2013-03-22 09:23:00,
2013-03-22 02:28:00,31.8,28.7,30.05,SW,225,0.0,0.0,88,0.00,CLR,FEW,0.00,WeatherDisplay:10.37,2013-03-22 09:28:00,
2013-03-22 02:33:00,31.8,28.7,30.05,SW,225,0.0,0.0,88,0.00,CLR,FEW,0.00,WeatherDisplay:10.37,2013-03-22 09:33:00,
2013-03-22 02:38:00,31.8,28.7,30.04,SW,225,0.0,0.0,88,0.00,CLR,FEW,0.00,WeatherDisplay:10.37,2013-03-22 09:38:00,
2013-03-22 02:43:00,31.8,28.7,30.04,SW,225,0.0,0.0,88,0.00,CLR,FEW,0.00,WeatherDisplay:10.37,2013-03-22 09:43:00,
2013-03-22 02:48:00,31.8,28.7,30.05,SW,225,0.0,0.0,88,0.00,CLR,FEW,0.00,WeatherDisplay:10.37,2013-03-22 09:48:00,
2013-03-22 02:53:00,31.8,28.9,30.05,SW,225,0.0,0.0,89,0.00,CLR,FEW,0.00,WeatherDisplay:10.37,2013-03-22 09:53:00,
2013-03-22 02:58:00,32.2,29.3,30.05,SW,225,0.0,0.0,89,0.00,CLR,FEW,0.00,WeatherDisplay:10.37,2013-03-22 09:58:00,
2013-03-22 03:03:00,32.2,29.3,30.05,SW,225,0.0,0.0,89,0.00,CLR,FEW,0.00,WeatherDisplay:10.37,2013-03-22 10:03:00,
2013-03-22 03:08:00,32.2,29.3,30.04,SW,225,0.0,0.0,89,0.00,CLR,FEW,0.00,WeatherDisplay:10.37,2013-03-22 10:08:00,
2013-03-22 03:13:00,32.2,29.3,30.04,SW,225,0.0,0.0,89,0.00,CLR,FEW,0.00,WeatherDisplay:10.37,2013-03-22 10:13:00,
2013-03-22 03:18:00,32.2,29.3,30.05,SW,225,0.0,0.0,89,0.00,CLR,FEW,0.00,WeatherDisplay:10.37,2013-03-22 10:18:00,
2013-03-22 03:23:00,32.2,29.3,30.05,SW,225,0.0,0.0,89,0.00,CLR,FEW,0.00,WeatherDisplay:10.37,2013-03-22 10:23:00,
2013-03-22 03:28:00,32.2,29.3,30.05,SW,225,0.0,0.0,89,0.00,CLR,FEW,0.00,WeatherDisplay:10.37,2013-03-22 10:28:00,
2013-03-22 03:33:00,32.2,29.3,30.05,SW,225,0.0,0.0,89,0.00,CLR,FEW,0.00,WeatherDisplay:10.37,2013-03-22 10:33:00,
2013-03-22 03:38:00,32.2,29.3,30.04,SW,225,0.0,0.0,89,0.00,CLR,FEW,0.00,WeatherDisplay:10.37,2013-03-22 10:38:00,
2013-03-22 03:43:00,32.2,29.3,30.04,SW,225,0.0,0.0,89,0.00,CLR,FEW,0.00,WeatherDisplay:10.37,2013-03-22 10:43:00,
2013-03-22 03:48:00,32.2,29.3,30.05,SW,225,0.0,0.0,89,0.00,CLR,FEW,0.00,WeatherDisplay:10.37,2013-03-22 10:48:00,
2013-03-22 03:53:00,32.4,29.5,30.05,SW,225,0.0,0.0,89,0.00,CLR,FEW,0.00,WeatherDisplay:10.37,2013-03-22 10:53:00,
2013-03-22 03:58:00,32.4,29.5,30.05,SW,225,0.0,0.0,89,0.00,CLR,FEW,0.00,WeatherDisplay:10.37,2013-03-22 10:58:00,
2013-03-22 04:03:00,32.4,29.5,30.05,SW,225,0.0,0.0,89,0.00,CLR,FEW,0.00,WeatherDisplay:10.37,2013-03-22 11:03:00,
2013-03-22 04:08:00,32.4,29.5,30.05,SW,225,0.0,0.0,89,0.00,CLR,FEW,0.00,WeatherDisplay:10.37,2013-03-22 11:08:00,
2013-03-22 04:13:00,32.4,29.5,30.04,SW,225,0.0,0.0,89,0.00,CLR,FEW,0.00,WeatherDisplay:10.37,2013-03-22 11:13:00,
2013-03-22 04:18:00,32.4,29.5,30.05,SW,225,0.0,0.0,89,0.00,CLR,FEW,0.00,WeatherDisplay:10.37,2013-03-22 11:18:00,
2013-03-22 04:23:00,32.5,29.7,30.05,SW,225,0.0,0.0,89,0.00,CLR,FEW,0.00,WeatherDisplay:10.37,2013-03-22 11:23:00,
2013-03-22 04:28:00,32.5,29.7,30.06,SW,225,0.0,0.0,89,0.00,CLR,FEW,0.00,WeatherDisplay:10.37,2013-03-22 11:28:00,
2013-03-22 04:33:00,32.5,29.7,30.06,SW,225,0.0,0.0,89,0.00,CLR,FEW,0.00,WeatherDisplay:10.37,2013-03-22 11:33:00,
2013-03-22 04:38:00,32.4,29.5,30.05,SW,225,0.0,0.0,89,0.00,CLR,FEW,0.00,WeatherDisplay:10.37,2013-03-22 11:38:00,
2013-03-22 04:43:00,32.4,29.5,30.06,SW,225,0.0,0.0,89,0.00,CLR,FEW,0.00,WeatherDisplay:10.37,2013-03-22 11:43:00,
2013-03-22 04:48:00,32.4,29.5,30.06,SW,225,0.0,0.0,89,0.00,CLR,FEW,0.00,WeatherDisplay:10.37,2013-03-22 11:48:00,
2013-03-22 04:53:00,32.4,29.5,30.06,SW,225,0.0,0.0,89,0.00,CLR,FEW,0.00,WeatherDisplay:10.37,2013-03-22 11:53:00,
2013-03-22 04:58:00,32.2,29.3,30.06,SW,225,0.0,0.0,89,0.00,CLR,FEW,0.00,WeatherDisplay:10.37,2013-03-22 11:58:00,
2013-03-22 05:03:00,32.2,29.3,30.06,SW,225,0.0,0.0,89,0.00,CLR,FEW,0.00,WeatherDisplay:10.37,2013-03-22 12:03:00,
2013-03-22 05:08:00,32.2,29.3,30.06,SW,225,0.0,0.0,89,0.00,CLR,FEW,0.00,WeatherDisplay:10.37,2013-03-22 12:08:00,
2013-03-22 05:13:00,32.2,29.3,30.06,SW,225,0.0,0.0,89,0.00,CLR,FEW,0.00,WeatherDisplay:10.37,2013-03-22 12:13:00,
2013-03-22 05:18:00,32.2,29.3,30.06,SW,225,0.0,0.0,89,0.00,CLR,FEW,0.00,WeatherDisplay:10.37,2013-03-22 12:18:00,
2013-03-22 05:23:00,32.2,29.3,30.06,SW,225,0.0,0.0,89,0.00,CLR,FEW,0.00,WeatherDisplay:10.37,2013-03-22 12:23:00,
2013-03-22 05:28:00,32.2,29.3,30.07,SW,225,0.0,0.0,89,0.00,CLR,FEW,0.00,WeatherDisplay:10.37,2013-03-22 12:28:00,
2013-03-22 05:33:00,32.2,29.3,30.06,SW,225,0.0,0.0,89,0.00,CLR,FEW,0.00,WeatherDisplay:10.37,2013-03-22 12:33:00,
2013-03-22 05:38:00,32.2,29.3,30.07,SW,225,0.0,0.0,89,0.00,CLR,FEW,0.00,WeatherDisplay:10.37,2013-03-22 12:38:00,
2013-03-22 05:43:00,32.2,29.3,30.07,SW,225,0.0,0.0,89,0.00,CLR,FEW,0.00,WeatherDisplay:10.37,2013-03-22 12:43:00,
2013-03-22 05:48:00,32.2,29.3,30.07,SW,225,0.0,0.0,89,0.00,CLR,FEW,0.00,WeatherDisplay:10.37,2013-03-22 12:48:00,
2013-03-22 05:53:00,32.2,29.3,30.07,SW,225,0.0,0.0,89,0.00,CLR,FEW,0.00,WeatherDisplay:10.37,2013-03-22 12:53:00,
2013-03-22 05:58:00,32.2,29.3,30.07,SW,225,0.0,0.0,89,0.00,CLR,FEW,0.00,WeatherDisplay:10.37,2013-03-22 12:58:00,
2013-03-22 06:03:00,32.2,29.3,30.07,SW,225,0.0,0.0,89,0.00,CLR,FEW,0.00,WeatherDisplay:10.37,2013-03-22 13:03:00,
2013-03-22 06:08:00,32.2,29.3,30.08,SW,225,0.0,0.0,89,0.00,CLR,FEW,0.00,WeatherDisplay:10.37,2013-03-22 13:08:00,
2013-03-22 06:13:00,32.2,29.3,30.08,SW,225,0.0,0.0,89,0.00,CLR,FEW,0.00,WeatherDisplay:10.37,2013-03-22 13:13:00,
2013-03-22 06:18:00,32.2,29.3,30.07,SW,225,0.0,0.0,89,0.00,CLR,FEW,0.00,WeatherDisplay:10.37,2013-03-22 13:18:00,
2013-03-22 06:23:00,32.2,29.3,30.07,SW,225,0.0,0.0,89,0.00,CLR,FEW,0.00,WeatherDisplay:10.37,2013-03-22 13:23:00,
2013-03-22 06:28:00,32.2,29.3,30.08,SW,225,0.0,0.0,89,0.00,CLR,FEW,0.00,WeatherDisplay:10.37,2013-03-22 13:28:00,
2013-03-22 06:33:00,32.2,29.3,30.08,SW,225,0.0,0.0,89,0.00,CLR,FEW,0.00,WeatherDisplay:10.37,2013-03-22 13:33:00,
2013-03-22 06:38:00,32.2,29.3,30.07,SW,225,0.0,0.0,89,0.00,CLR,FEW,0.00,WeatherDisplay:10.37,2013-03-22 13:38:00,
2013-03-22 06:43:00,32.2,29.3,30.08,SW,225,0.0,0.0,89,0.00,CLR,FEW,0.00,WeatherDisplay:10.37,2013-03-22 13:43:00,
2013-03-22 06:48:00,32.2,29.3,30.08,SW,225,0.0,0.0,89,0.00,CLR,FEW,0.00,WeatherDisplay:10.37,2013-03-22 13:48:00,
2013-03-22 06:53:00,31.8,28.9,30.08,SW,225,0.0,0.0,89,0.00,CLR,FEW,0.00,WeatherDisplay:10.37,2013-03-22 13:53:00,
2013-03-22 06:58:00,31.8,28.9,30.08,SW,225,0.0,0.0,89,0.00,CLR,FEW,0.00,WeatherDisplay:10.37,2013-03-22 13:58:00,
2013-03-22 07:03:00,32.0,29.1,30.08,SW,225,0.0,0.0,89,0.00,CLR,FEW,0.00,WeatherDisplay:10.37,2013-03-22 14:03:00,
2013-03-22 07:08:00,32.2,29.3,30.08,SW,225,0.0,0.0,89,0.00,CLR,FEW,0.00,WeatherDisplay:10.37,2013-03-22 14:08:00,
2013-03-22 07:13:00,32.2,29.3,30.09,SW,225,0.0,0.0,89,0.00,CLR,FEW,0.00,WeatherDisplay:10.37,2013-03-22 14:13:00,
2013-03-22 07:18:00,32.2,29.3,30.09,SW,225,0.0,0.0,89,0.00,CLR,FEW,0.00,WeatherDisplay:10.37,2013-03-22 14:18:00,
2013-03-22 07:23:00,32.4,29.5,30.08,SW,225,0.0,0.0,89,0.00,CLR,FEW,0.00,WeatherDisplay:10.37,2013-03-22 14:23:00,
2013-03-22 07:28:00,32.4,29.5,30.09,SW,225,0.0,0.0,89,0.00,CLR,FEW,0.00,WeatherDisplay:10.37,2013-03-22 14:28:00,
2013-03-22 07:33:00,32.4,29.5,30.09,SW,225,0.0,0.0,89,0.00,CLR,FEW,0.00,WeatherDisplay:10.37,2013-03-22 14:33:00,
2013-03-22 07:38:00,32.4,29.5,30.09,SW,225,0.0,0.0,89,0.00,CLR,FEW,0.00,WeatherDisplay:10.37,2013-03-22 14:38:00,
2013-03-22 07:43:00,32.5,29.7,30.09,SW,225,0.0,0.0,89,0.00,CLR,FEW,0.00,WeatherDisplay:10.37,2013-03-22 14:43:00,
2013-03-22 07:48:00,32.5,29.7,30.09,SW,225,0.0,0.0,89,0.00,CLR,FEW,0.00,WeatherDisplay:10.37,2013-03-22 14:48:00,
2013-03-22 07:53:00,32.7,29.8,30.09,SW,225,0.0,0.0,89,0.00,CLR,FEW,0.00,WeatherDisplay:10.37,2013-03-22 14:53:00,
2013-03-22 07:58:00,32.9,30.0,30.09,SW,225,0.0,0.0,89,0.00,CLR,FEW,0.00,WeatherDisplay:10.37,2013-03-22 14:58:00,
2013-03-22 08:03:00,33.3,30.4,30.10,SW,225,0.0,0.0,89,0.00,CLR,FEW,0.00,WeatherDisplay:10.37,2013-03-22 15:03:00,
2013-03-22 08:08:00,33.6,30.7,30.09,SW,225,0.0,0.0,89,0.00,CLR,FEW,0.00,WeatherDisplay:10.37,2013-03-22 15:08:00,
2013-03-22 08:13:00,33.8,30.6,30.10,SW,225,0.0,0.0,88,0.00,CLR,FEW,0.00,WeatherDisplay:10.37,2013-03-22 15:13:00,
2013-03-22 08:18:00,34.3,31.2,30.10,SW,225,0.0,0.0,88,0.00,CLR,FEW,0.00,WeatherDisplay:10.37,2013-03-22 15:18:00,
2013-03-22 08:23:00,35.2,32.0,30.10,SW,225,0.0,0.0,88,0.00,CLR,FEW,0.00,WeatherDisplay:10.37,2013-03-22 15:23:00,
2013-03-22 08:28:00,35.4,32.2,30.10,SW,225,0.0,0.0,88,0.00,CLR,FEW,0.00,WeatherDisplay:10.37,2013-03-22 15:28:00,
2013-03-22 08:33:00,36.0,32.8,30.10,SW,225,0.0,0.0,88,0.00,CLR,FEW,0.00,WeatherDisplay:10.37,2013-03-22 15:33:00,
2013-03-22 08:38:00,36.0,32.5,30.10,SW,225,0.0,0.0,87,0.00,CLR,FEW,0.00,WeatherDisplay:10.37,2013-03-22 15:38:00,
2013-03-22 08:43:00,36.0,32.5,30.11,SW,225,0.0,0.0,87,0.00,CLR,FEW,0.00,WeatherDisplay:10.37,2013-03-22 15:43:00,
2013-03-22 08:48:00,36.0,32.5,30.11,SW,225,0.0,0.0,87,0.00,CLR,FEW,0.00,WeatherDisplay:10.37,2013-03-22 15:48:00,
2013-03-22 08:53:00,36.0,32.2,30.10,SW,225,0.0,0.0,86,0.00,CLR,FEW,0.02,WeatherDisplay:10.37,2013-03-22 15:53:00,
2013-03-22 08:58:00,36.0,32.2,30.11,SW,225,0.0,0.0,86,0.02,RA,FEW,0.02,WeatherDisplay:10.37,2013-03-22 15:58:00,
2013-03-22 09:03:00,36.1,32.4,30.11,SW,225,0.0,0.0,86,0.02,RA,FEW,0.02,WeatherDisplay:10.37,2013-03-22 16:03:00,
2013-03-22 09:08:00,35.8,32.0,30.11,SW,225,0.0,0.0,86,0.02,CLR,FEW,0.02,WeatherDisplay:10.37,2013-03-22 16:08:00,
2013-03-22 09:13:00,35.8,32.0,30.11,SW,225,0.0,0.0,86,0.02,CLR,FEW,0.02,WeatherDisplay:10.37,2013-03-22 16:13:00,
2013-03-22 09:18:00,35.8,32.0,30.11,SSW,202,0.0,0.0,86,0.02,CLR,FEW,0.02,WeatherDisplay:10.37,2013-03-22 16:18:00,
2013-03-22 09:23:00,35.4,31.6,30.11,SE,135,0.0,0.0,86,0.02,CLR,FEW,0.02,WeatherDisplay:10.37,2013-03-22 16:23:00,
2013-03-22 09:28:00,35.4,31.6,30.11,SE,135,0.0,0.0,86,0.02,CLR,FEW,0.02,WeatherDisplay:10.37,2013-03-22 16:28:00,
2013-03-22 09:33:00,35.8,32.0,30.11,SE,135,0.0,0.0,86,0.02,CLR,FEW,0.02,WeatherDisplay:10.37,2013-03-22 16:33:00,
2013-03-22 09:38:00,35.8,32.0,30.11,SE,135,0.0,0.0,86,0.02,CLR,FEW,0.02,WeatherDisplay:10.37,2013-03-22 16:38:00,
2013-03-22 09:43:00,35.8,32.0,30.11,SE,135,0.0,0.0,86,0.02,CLR,FEW,0.02,WeatherDisplay:10.37,2013-03-22 16:43:00,
2013-03-22 09:48:00,35.8,32.0,30.12,SE,135,0.0,0.0,86,0.02,CLR,FEW,0.02,WeatherDisplay:10.37,2013-03-22 16:48:00,
2013-03-22 09:53:00,36.0,31.9,30.12,SE,135,0.0,0.0,85,0.02,CLR,FEW,0.02,WeatherDisplay:10.37,2013-03-22 16:53:00,
2013-03-22 09:58:00,36.0,31.9,30.12,SE,135,0.0,0.0,85,0.00,CLR,FEW,0.02,WeatherDisplay:10.37,2013-03-22 16:58:00,
2013-03-22 10:03:00,36.1,32.1,30.12,SE,135,0.0,0.0,85,0.00,CLR,FEW,0.02,WeatherDisplay:10.37,2013-03-22 17:03:00,
2013-03-22 10:08:00,36.5,32.4,30.12,SE,135,0.0,0.0,85,0.00,CLR,FEW,0.02,WeatherDisplay:10.37,2013-03-22 17:08:00,
2013-03-22 10:13:00,36.5,32.1,30.12,ENE,68,0.0,0.0,84,0.00,CLR,FEW,0.02,WeatherDisplay:10.37,2013-03-22 17:13:00,
2013-03-22 10:18:00,37.0,32.7,30.12,East,90,0.0,0.0,84,0.00,CLR,FEW,0.02,WeatherDisplay:10.37,2013-03-22 17:18:00,
2013-03-22 10:23:00,37.0,32.7,30.12,East,90,0.0,0.0,84,0.00,CLR,FEW,0.02,WeatherDisplay:10.37,2013-03-22 17:23:00,
2013-03-22 10:28:00,37.0,32.4,30.12,East,90,0.0,0.0,83,0.00,CLR,FEW,0.02,WeatherDisplay:10.37,2013-03-22 17:28:00,
2013-03-22 10:33:00,37.2,32.5,30.12,East,90,0.0,0.0,83,0.00,CLR,FEW,0.02,WeatherDisplay:10.37,2013-03-22 17:33:00,
2013-03-22 10:38:00,37.6,32.6,30.12,NE,45,0.0,0.0,82,0.00,CLR,FEW,0.02,WeatherDisplay:10.37,2013-03-22 17:38:00,
2013-03-22 10:43:00,37.6,32.3,30.13,ENE,68,0.0,0.0,81,0.00,CLR,FEW,0.02,WeatherDisplay:10.37,2013-03-22 17:43:00,
2013-03-22 10:48:00,37.9,32.6,30.12,East,90,0.0,0.0,81,0.00,CLR,FEW,0.02,WeatherDisplay:10.37,2013-03-22 17:48:00,
2013-03-22 10:53:00,39.0,33.7,30.13,ENE,68,0.0,0.0,81,0.00,CLR,FEW,0.02,WeatherDisplay:10.37,2013-03-22 17:53:00,
2013-03-22 10:58:00,39.7,34.1,30.12,NE,45,3.8,3.8,80,0.00,CLR,FEW,0.02,WeatherDisplay:10.37,2013-03-22 17:58:00,
2013-03-22 11:03:00,40.3,33.6,30.12,NW,315,6.9,7.4,77,0.00,CLR,FEW,0.02,WeatherDisplay:10.37,2013-03-22 18:03:00,
2013-03-22 11:08:00,40.5,33.2,30.13,NNW,338,3.5,3.5,75,0.00,CLR,FEW,0.02,WeatherDisplay:10.37,2013-03-22 18:08:00,
2013-03-22 11:13:00,40.5,32.1,30.12,NW,315,6.9,6.9,72,0.00,CLR,FEW,0.02,WeatherDisplay:10.37,2013-03-22 18:13:00,
2013-03-22 11:18:00,40.6,32.0,30.12,NE,45,4.2,4.2,71,0.00,CLR,FEW,0.02,WeatherDisplay:10.37,2013-03-22 18:18:00,
2013-03-22 11:23:00,40.8,31.8,30.13,NNW,338,6.9,6.9,70,0.00,CLR,FEW,0.02,WeatherDisplay:10.37,2013-03-22 18:23:00,
2013-03-22 11:28:00,40.8,31.8,30.12,NW,315,9.6,9.6,70,0.00,CLR,FEW,0.02,WeatherDisplay:10.37,2013-03-22 18:28:00,
2013-03-22 11:33:00,40.6,30.9,30.12,WNW,292,8.1,8.3,68,0.00,CLR,FEW,0.02,WeatherDisplay:10.37,2013-03-22 18:33:00,
2013-03-22 11:38:00,40.6,30.5,30.12,WNW,292,8.5,8.5,67,0.00,CLR,FEW,0.02,WeatherDisplay:10.37,2013-03-22 18:38:00,
2013-03-22 11:43:00,40.8,30.3,30.12,WNW,292,7.2,7.2,66,0.00,CLR,FEW,0.02,WeatherDisplay:10.37,2013-03-22 18:43:00,
2013-03-22 11:48:00,41.0,29.7,30.12,NW,315,11.2,11.2,64,0.00,CLR,FEW,0.02,WeatherDisplay:10.37,2013-03-22 18:48:00,
2013-03-22 11:53:00,41.2,30.3,30.12,NNW,338,10.4,10.4,65,0.00,CLR,FEW,0.02,WeatherDisplay:10.37,2013-03-22 18:53:00,
2013-03-22 11:58:00,41.5,30.6,30.12,NW,315,12.7,12.7,65,0.00,CLR,FEW,0.02,WeatherDisplay:10.37,2013-03-22 18:58:00,
2013-03-22 12:03:00,41.5,29.9,30.12,WNW,292,6.9,6.9,63,0.00,CLR,FEW,0.02,WeatherDisplay:10.37,2013-03-22 19:03:00,
2013-03-22 12:08:00,41.5,29.9,30.12,NNE,22,8.1,8.1,63,0.00,CLR,FEW,0.02,WeatherDisplay:10.37,2013-03-22 19:08:00,
2013-03-22 12:13:00,41.7,30.0,30.12,NNW,338,6.9,6.9,63,0.00,CLR,FEW,0.02,WeatherDisplay:10.37,2013-03-22 19:13:00,
2013-03-22 12:18:00,42.3,30.2,30.12,WNW,292,4.9,4.9,62,0.00,CLR,FEW,0.02,WeatherDisplay:10.37,2013-03-22 19:18:00,
2013-03-22 12:23:00,42.4,29.9,30.12,NNW,338,13.2,13.2,61,0.00,CLR,FEW,0.02,WeatherDisplay:10.37,2013-03-22 19:23:00,
2013-03-22 12:28:00,42.6,30.1,30.12,WNW,292,10.4,10.4,61,0.00,CLR,FEW,0.02,WeatherDisplay:10.37,2013-03-22 19:28:00,
2013-03-22 12:33:00,42.4,29.5,30.12,NNW,338,13.9,13.9,60,0.00,CLR,FEW,0.02,WeatherDisplay:10.37,2013-03-22 19:33:00,
2013-03-22 12:38:00,42.4,29.5,30.11,NNW,338,11.8,11.8,60,0.00,CLR,FEW,0.02,WeatherDisplay:10.37,2013-03-22 19:38:00,
2013-03-22 12:43:00,42.4,29.1,30.12,NNW,338,8.1,8.1,59,0.00,CLR,FEW,0.02,WeatherDisplay:10.37,2013-03-22 19:43:00,
2013-03-22 12:48:00,42.1,28.8,30.11,WNW,292,8.1,8.1,59,0.00,CLR,FEW,0.02,WeatherDisplay:10.37,2013-03-22 19:48:00,
2013-03-22 12:53:00,42.4,29.1,30.11,NNW,338,9.6,9.6,59,0.00,CLR,FEW,0.02,WeatherDisplay:10.37,2013-03-22 19:53:00,
2013-03-22 12:58:00,42.6,29.3,30.11,NNW,338,6.9,6.9,59,0.00,CLR,FEW,0.02,WeatherDisplay:10.37,2013-03-22 19:58:00,
2013-03-22 13:03:00,42.6,29.3,30.11,WNW,292,9.2,9.4,59,0.00,CLR,FEW,0.02,WeatherDisplay:10.37,2013-03-22 20:03:00,
2013-03-22 13:08:00,43.2,29.8,30.11,West,270,3.6,3.6,59,0.00,CLR,FEW,0.02,WeatherDisplay:10.37,2013-03-22 20:08:00,
2013-03-22 13:13:00,43.2,28.9,30.11,WNW,292,11.5,11.5,57,0.00,CLR,FEW,0.02,WeatherDisplay:10.37,2013-03-22 20:13:00,
2013-03-22 13:18:00,42.6,28.4,30.12,WNW,292,8.1,8.3,57,0.00,CLR,FEW,0.02,WeatherDisplay:10.37,2013-03-22 20:18:00,
2013-03-22 13:23:00,42.4,28.3,30.12,WSW,248,8.1,8.1,57,0.00,CLR,FEW,0.02,WeatherDisplay:10.37,2013-03-22 20:23:00,
2013-03-22 13:28:00,42.4,28.7,30.12,WNW,292,4.6,4.6,58,0.00,CLR,FEW,0.02,WeatherDisplay:10.37,2013-03-22 20:28:00,
2013-03-22 13:33:00,43.0,29.2,30.12,West,270,6.9,6.9,58,0.00,CLR,FEW,0.02,WeatherDisplay:10.37,2013-03-22 20:33:00,
2013-03-22 13:38:00,43.3,29.5,30.11,NW,315,20.7,20.7,58,0.00,CLR,FEW,0.02,WeatherDisplay:10.37,2013-03-22 20:38:00,
2013-03-22 13:43:00,42.8,29.5,30.12,NW,315,8.1,8.1,59,0.00,CLR,FEW,0.02,WeatherDisplay:10.37,2013-03-22 20:43:00,
2013-03-22 13:48:00,42.4,29.5,30.11,North,0,4.6,4.7,60,0.00,CLR,FEW,0.02,WeatherDisplay:10.37,2013-03-22 20:48:00,
2013-03-22 13:53:00,42.4,29.9,30.11,ENE,68,4.6,4.6,61,0.00,CLR,FEW,0.02,WeatherDisplay:10.37,2013-03-22 20:53:00,
2013-03-22 13:58:00,42.6,30.1,30.11,SW,225,3.6,3.6,61,0.00,CLR,FEW,0.02,WeatherDisplay:10.37,2013-03-22 20:58:00,
2013-03-22 14:03:00,43.5,30.1,30.11,SW,225,0.0,0.0,59,0.00,CLR,FEW,0.02,WeatherDisplay:10.37,2013-03-22 21:03:00,
2013-03-22 14:08:00,43.7,30.3,30.11,SSE,158,4.0,4.0,59,0.00,CLR,FEW,0.02,WeatherDisplay:10.37,2013-03-22 21:08:00,
2013-03-22 14:13:00,43.5,29.7,30.10,SSE,158,3.5,3.5,58,0.00,CLR,FEW,0.02,WeatherDisplay:10.37,2013-03-22 21:13:00,
2013-03-22 14:18:00,43.7,29.9,30.10,South,180,4.6,4.6,58,0.00,CLR,FEW,0.02,WeatherDisplay:10.37,2013-03-22 21:18:00,
2013-03-22 14:23:00,43.9,30.0,30.11,WNW,292,12.1,12.1,58,0.00,CLR,FEW,0.02,WeatherDisplay:10.37,2013-03-22 21:23:00,
2013-03-22 14:28:00,43.0,28.8,30.11,WNW,292,10.4,10.4,57,0.00,CLR,FEW,0.02,WeatherDisplay:10.37,2013-03-22 21:28:00,
2013-03-22 14:33:00,40.8,27.6,30.12,NW,315,7.2,7.2,59,0.00,CLR,FEW,0.02,WeatherDisplay:10.37,2013-03-22 21:33:00,
2013-03-22 14:38:00,40.1,27.3,30.12,NW,315,6.9,6.9,60,0.00,CLR,FEW,0.02,WeatherDisplay:10.37,2013-03-22 21:38:00,
2013-03-22 14:43:00,39.6,27.6,30.12,NW,315,3.5,3.5,62,0.00,CLR,FEW,0.02,WeatherDisplay:10.37,2013-03-22 21:43:00,
2013-03-22 14:48:00,39.6,28.4,30.12,NNE,22,4.6,4.6,64,0.00,CLR,FEW,0.02,WeatherDisplay:10.37,2013-03-22 21:48:00,
2013-03-22 14:53:00,39.9,28.7,30.12,NE,45,3.5,3.5,64,0.00,CLR,FEW,0.02,WeatherDisplay:10.37,2013-03-22 21:53:00,
2013-03-22 14:58:00,39.9,29.1,30.12,ESE,112,3.8,3.8,65,0.00,CLR,FEW,0.02,WeatherDisplay:10.37,2013-03-22 21:58:00,
2013-03-22 15:03:00,39.9,29.1,30.12,NW,315,13.9,13.9,65,0.00,CLR,FEW,0.02,WeatherDisplay:10.37,2013-03-22 22:03:00,
2013-03-22 15:08:00,39.0,28.6,30.13,NNW,338,8.5,8.5,66,0.00,CLR,FEW,0.02,WeatherDisplay:10.37,2013-03-22 22:08:00,
2013-03-22 15:13:00,38.7,28.3,30.13,North,0,7.4,7.4,66,0.00,CLR,FEW,0.02,WeatherDisplay:10.37,2013-03-22 22:13:00,
2013-03-22 15:18:00,38.5,28.1,30.12,NW,315,9.2,9.2,66,0.00,CLR,FEW,0.02,WeatherDisplay:10.37,2013-03-22 22:18:00,
2013-03-22 15:23:00,38.7,28.3,30.12,NW,315,5.8,5.8,66,0.00,CLR,FEW,0.02,WeatherDisplay:10.37,2013-03-22 22:23:00,
2013-03-22 15:28:00,39.0,28.6,30.13,WNW,292,0.0,0.0,66,0.02,RA,FEW,0.04,WeatherDisplay:10.37,2013-03-22 22:28:00,
2013-03-22 15:33:00,39.4,28.6,30.12,NE,45,1.1,1.1,65,0.02,RA,FEW,0.04,WeatherDisplay:10.37,2013-03-22 22:33:00,
2013-03-22 15:38:00,39.6,28.8,30.12,ESE,112,3.6,3.6,65,0.02,,FEW,0.04,WeatherDisplay:10.37,2013-03-22 22:38:00,
2013-03-22 15:43:00,39.7,28.5,30.12,ESE,112,8.1,8.1,64,0.02,CLR,FEW,0.04,WeatherDisplay:10.37,2013-03-22 22:43:00,
2013-03-22 15:48:00,39.9,28.7,30.13,ESE,112,4.6,4.6,64,0.02,CLR,FEW,0.04,WeatherDisplay:10.37,2013-03-22 22:48:00,
2013-03-22 15:53:00,39.9,28.7,30.13,ESE,112,0.0,0.0,64,0.02,CLR,FEW,0.04,WeatherDisplay:10.37,2013-03-22 22:53:00,
2013-03-22 15:58:00,40.1,28.9,30.13,WSW,248,6.7,6.7,64,0.02,CLR,FEW,0.04,WeatherDisplay:10.37,2013-03-22 22:58:00,
2013-03-22 16:03:00,40.5,28.5,30.13,WNW,292,5.8,5.8,62,0.02,CLR,FEW,0.04,WeatherDisplay:10.37,2013-03-22 23:03:00,
2013-03-22 16:08:00,40.6,28.6,30.14,WNW,292,8.1,8.1,62,0.02,CLR,FEW,0.04,WeatherDisplay:10.37,2013-03-22 23:08:00,
2013-03-22 16:13:00,40.8,28.4,30.14,WNW,292,15.4,15.4,61,0.02,CLR,FEW,0.04,WeatherDisplay:10.37,2013-03-22 23:13:00,
2013-03-22 16:18:00,40.5,28.1,30.14,WNW,292,8.1,8.1,61,0.02,CLR,FEW,0.04,WeatherDisplay:10.37,2013-03-22 23:18:00,
2013-03-22 16:23:00,39.9,27.9,30.14,WSW,248,4.6,4.9,62,0.02,CLR,FEW,0.04,WeatherDisplay:10.37,2013-03-22 23:23:00,
2013-03-22 16:28:00,39.6,28.0,30.15,WSW,248,6.9,7.4,63,0.00,CLR,FEW,0.04,WeatherDisplay:10.37,2013-03-22 23:28:00,
2013-03-22 16:33:00,39.4,28.6,30.15,WSW,248,3.5,3.5,65,0.00,CLR,FEW,0.04,WeatherDisplay:10.37,2013-03-22 23:33:00,
2013-03-22 16:38:00,39.0,28.6,30.15,SW,225,5.8,5.8,66,0.00,CLR,FEW,0.04,WeatherDisplay:10.37,2013-03-22 23:38:00,
2013-03-22 16:43:00,38.8,28.4,30.15,WNW,292,4.0,4.0,66,0.00,CLR,FEW,0.04,WeatherDisplay:10.37,2013-03-22 23:43:00,
2013-03-22 16:48:00,38.8,28.8,30.16,WSW,248,4.6,4.6,67,0.00,CLR,FEW,0.04,WeatherDisplay:10.37,2013-03-22 23:48:00,
2013-03-22 16:53:00,38.8,29.2,30.16,WSW,248,2.3,2.3,68,0.00,CLR,FEW,0.04,WeatherDisplay:10.37,2013-03-22 23:53:00,
2013-03-22 16:58:00,39.0,29.3,30.16,WSW,248,5.1,5.1,68,0.00,CLR,FEW,0.04,WeatherDisplay:10.37,2013-03-22 23:58:00,
2013-03-22 17:03:00,39.0,29.3,30.16,WSW,248,2.5,2.5,68,0.00,CLR,FEW,0.04,WeatherDisplay:10.37,2013-03-23 00:03:00,
2013-03-22 17:08:00,39.0,29.3,30.16,WSW,248,0.0,0.0,68,0.00,CLR,FEW,0.04,WeatherDisplay:10.37,2013-03-23 00:08:00,
2013-03-22 17:13:00,39.4,29.7,30.15,SW,225,2.3,2.3,68,0.00,CLR,FEW,0.04,WeatherDisplay:10.37,2013-03-23 00:13:00,
2013-03-22 17:18:00,39.0,29.0,30.16,SW,225,0.0,0.0,67,0.00,CLR,FEW,0.04,WeatherDisplay:10.37,2013-03-23 00:18:00,
2013-03-22 17:23:00,39.0,29.0,30.16,SSE,158,2.5,2.5,67,0.00,CLR,FEW,0.04,WeatherDisplay:10.37,2013-03-23 00:23:00,
2013-03-22 17:28:00,38.8,28.8,30.15,East,90,4.6,4.6,67,0.00,CLR,FEW,0.04,WeatherDisplay:10.37,2013-03-23 00:28:00,
2013-03-22 17:33:00,38.5,28.5,30.16,East,90,4.9,4.9,67,0.00,CLR,FEW,0.04,WeatherDisplay:10.37,2013-03-23 00:33:00,
2013-03-22 17:38:00,38.5,28.8,30.16,ESE,112,5.8,6.3,68,0.00,CLR,FEW,0.04,WeatherDisplay:10.37,2013-03-23 00:38:00,
2013-03-22 17:43:00,38.3,28.7,30.15,ESE,112,6.9,6.9,68,0.00,CLR,FEW,0.04,WeatherDisplay:10.37,2013-03-23 00:43:00,
2013-03-22 17:48:00,38.3,28.7,30.16,East,90,6.9,6.9,68,0.00,CLR,FEW,0.04,WeatherDisplay:10.37,2013-03-23 00:48:00,
2013-03-22 17:53:00,38.3,28.7,30.16,East,90,0.0,0.0,68,0.00,CLR,FEW,0.04,WeatherDisplay:10.37,2013-03-23 00:53:00,
2013-03-22 17:59:00,38.3,28.7,30.17,East,90,2.3,2.3,68,0.00,CLR,FEW,0.04,WeatherDisplay:10.37,2013-03-23 00:59:00,
2013-03-22 18:04:00,38.3,29.0,30.17,East,90,0.0,0.0,69,0.00,CLR,FEW,0.04,WeatherDisplay:10.37,2013-03-23 01:04:00,
2013-03-22 18:09:00,38.3,29.0,30.18,WNW,292,9.2,9.2,69,0.00,CLR,FEW,0.04,WeatherDisplay:10.37,2013-03-23 01:09:00,
2013-03-22 18:14:00,38.1,29.9,30.19,WNW,292,6.9,6.9,72,0.00,CLR,FEW,0.04,WeatherDisplay:10.37,2013-03-23 01:14:00,
2013-03-22 18:19:00,36.1,28.3,30.19,West,270,8.1,8.1,73,0.00,CLR,FEW,0.04,WeatherDisplay:10.37,2013-03-23 01:19:00,
2013-03-22 18:24:00,35.4,28.0,30.19,West,270,0.0,0.0,74,0.00,CLR,FEW,0.04,WeatherDisplay:10.37,2013-03-23 01:24:00,
2013-03-22 18:29:00,35.2,28.1,30.19,West,270,0.0,0.0,75,0.00,CLR,FEW,0.04,WeatherDisplay:10.37,2013-03-23 01:29:00,
2013-03-22 18:34:00,34.9,27.8,30.19,WSW,248,0.0,0.0,75,0.00,CLR,FEW,0.04,WeatherDisplay:10.37,2013-03-23 01:34:00,
2013-03-22 18:39:00,34.5,27.7,30.19,WSW,248,0.0,0.0,76,0.00,CLR,FEW,0.04,WeatherDisplay:10.37,2013-03-23 01:39:00,
2013-03-22 18:44:00,34.3,27.9,30.19,SSE,158,0.0,0.0,77,0.00,CLR,FEW,0.04,WeatherDisplay:10.37,2013-03-23 01:44:00,
2013-03-22 18:49:00,34.2,28.0,30.19,SSE,158,1.1,1.1,78,0.00,CLR,FEW,0.04,WeatherDisplay:10.37,2013-03-23 01:49:00,
2013-03-22 18:54:00,34.0,27.8,30.19,SSE,158,0.0,0.0,78,0.00,CLR,FEW,0.04,WeatherDisplay:10.37,2013-03-23 01:54:00,
2013-03-22 18:59:00,33.6,27.8,30.19,SSE,158,0.0,0.0,79,0.00,CLR,FEW,0.04,WeatherDisplay:10.37,2013-03-23 01:59:00,
2013-03-22 19:04:00,33.6,27.8,30.19,SSE,158,0.0,0.0,79,0.00,CLR,FEW,0.04,WeatherDisplay:10.37,2013-03-23 02:04:00,
2013-03-22 19:09:00,33.4,27.6,30.19,SSE,158,0.0,0.0,79,0.00,CLR,FEW,0.04,WeatherDisplay:10.37,2013-03-23 02:09:00,
2013-03-22 19:14:00,33.3,27.8,30.19,SSE,158,0.0,0.0,80,0.00,CLR,FEW,0.04,WeatherDisplay:10.37,2013-03-23 02:14:00,
2013-03-22 19:19:00,33.3,27.8,30.20,SSE,158,0.0,0.0,80,0.00,CLR,FEW,0.04,WeatherDisplay:10.37,2013-03-23 02:19:00,
2013-03-22 19:24:00,33.4,27.9,30.20,SSE,158,0.0,0.0,80,0.00,CLR,FEW,0.04,WeatherDisplay:10.37,2013-03-23 02:24:00,
2013-03-22 19:29:00,33.4,27.9,30.19,SSE,158,0.0,0.0,80,0.00,CLR,FEW,0.04,WeatherDisplay:10.37,2013-03-23 02:29:00,
2013-03-22 19:34:00,33.3,27.8,30.20,SSE,158,0.0,0.0,80,0.00,CLR,FEW,0.04,WeatherDisplay:10.37,2013-03-23 02:34:00,
2013-03-22 19:39:00,33.3,27.8,30.21,SSE,158,0.0,0.0,80,0.00,CLR,FEW,0.04,WeatherDisplay:10.37,2013-03-23 02:39:00,
2013-03-22 19:44:00,33.1,27.6,30.21,SSE,158,0.0,0.0,80,0.00,CLR,FEW,0.04,WeatherDisplay:10.37,2013-03-23 02:44:00,
2013-03-22 19:49:00,33.1,27.9,30.21,SSE,158,0.0,0.0,81,0.00,CLR,FEW,0.04,WeatherDisplay:10.37,2013-03-23 02:49:00,
2013-03-22 19:54:00,32.7,27.5,30.21,SSE,158,0.0,0.0,81,0.00,CLR,FEW,0.04,WeatherDisplay:10.37,2013-03-23 02:54:00,
2013-03-22 19:59:00,32.7,27.5,30.21,SSE,158,0.0,0.0,81,0.00,CLR,FEW,0.04,WeatherDisplay:10.37,2013-03-23 02:59:00,
2013-03-22 20:04:00,32.5,27.4,30.21,SSE,158,0.0,0.0,81,0.00,CLR,FEW,0.04,WeatherDisplay:10.37,2013-03-23 03:04:00,
2013-03-22 20:09:00,32.4,27.2,30.22,SSE,158,0.0,0.0,81,0.00,CLR,FEW,0.04,WeatherDisplay:10.37,2013-03-23 03:09:00,
2013-03-22 20:14:00,32.2,27.0,30.22,SSE,158,0.0,0.0,81,0.00,CLR,FEW,0.04,WeatherDisplay:10.37,2013-03-23 03:14:00,
2013-03-22 20:19:00,32.2,27.0,30.22,SSE,158,0.0,0.0,81,0.00,CLR,FEW,0.04,WeatherDisplay:10.37,2013-03-23 03:19:00,
2013-03-22 20:24:00,32.2,27.0,30.23,SSE,158,0.0,0.0,81,0.00,CLR,FEW,0.04,WeatherDisplay:10.37,2013-03-23 03:24:00,
2013-03-22 20:29:00,32.0,26.8,30.22,SSE,158,0.0,0.0,81,0.00,CLR,FEW,0.04,WeatherDisplay:10.37,2013-03-23 03:29:00,
2013-03-22 20:34:00,31.8,26.7,30.23,SSE,158,0.0,0.0,81,0.00,CLR,FEW,0.04,WeatherDisplay:10.37,2013-03-23 03:34:00,
2013-03-22 20:39:00,31.8,26.7,30.23,SSE,158,0.0,0.0,81,0.00,CLR,FEW,0.04,WeatherDisplay:10.37,2013-03-23 03:39:00,
2013-03-22 20:44:00,31.6,26.5,30.24,SSE,158,0.0,0.0,81,0.00,CLR,FEW,0.04,WeatherDisplay:10.37,2013-03-23 03:44:00,
2013-03-22 20:49:00,31.6,26.8,30.24,NNW,338,0.2,0.2,82,0.00,CLR,FEW,0.04,WeatherDisplay:10.37,2013-03-23 03:49:00,
2013-03-22 20:54:00,31.6,26.8,30.24,SSE,158,0.0,0.0,82,0.00,CLR,FEW,0.04,WeatherDisplay:10.37,2013-03-23 03:54:00,
2013-03-22 20:59:00,31.6,26.8,30.24,SSE,158,0.0,0.0,82,0.00,CLR,FEW,0.04,WeatherDisplay:10.37,2013-03-23 03:59:00,
2013-03-22 21:00:00,31.6,27.1,30.24,SSE,158,0.0,0.0,83,0.00,CLR,FEW,0.04,WeatherDisplay:10.37,2013-03-23 04:00:00,
2013-03-22 21:05:00,31.6,27.1,30.24,SSE,158,0.0,0.0,83,0.00,CLR,FEW,0.04,WeatherDisplay:10.37,2013-03-23 04:05:00,
2013-03-22 21:10:00,31.8,27.2,30.24,SSE,158,0.0,0.0,83,0.00,CLR,FEW,0.04,WeatherDisplay:10.37,2013-03-23 04:10:00,
2013-03-22 21:15:00,31.8,27.2,30.24,SSE,158,0.0,0.0,83,0.00,CLR,FEW,0.04,WeatherDisplay:10.37,2013-03-23 04:15:00,
2013-03-22 21:20:00,31.8,27.2,30.24,SSE,158,0.0,0.0,83,0.00,CLR,FEW,0.04,WeatherDisplay:10.37,2013-03-23 04:20:00,
2013-03-22 21:25:00,31.6,27.1,30.24,SSE,158,0.0,0.0,83,0.00,CLR,FEW,0.04,WeatherDisplay:10.37,2013-03-23 04:25:00,
2013-03-22 21:30:00,31.8,27.5,30.24,SSE,158,0.0,0.0,84,0.00,CLR,FEW,0.04,WeatherDisplay:10.37,2013-03-23 04:30:00,
2013-03-22 21:35:00,31.8,27.5,30.24,SSE,158,0.0,0.0,84,0.00,CLR,FEW,0.04,WeatherDisplay:10.37,2013-03-23 04:35:00,
2013-03-22 21:40:00,31.8,27.5,30.25,SSE,158,0.0,0.0,84,0.00,CLR,FEW,0.04,WeatherDisplay:10.37,2013-03-23 04:40:00,
2013-03-22 21:45:00,31.8,27.5,30.25,SSE,158,0.0,0.0,84,0.00,CLR,FEW,0.04,WeatherDisplay:10.37,2013-03-23 04:45:00,
2013-03-22 21:50:00,31.8,27.5,30.25,SSE,158,0.0,0.0,84,0.00,CLR,FEW,0.04,WeatherDisplay:10.37,2013-03-23 04:50:00,
2013-03-22 21:55:00,31.8,27.5,30.25,SSE,158,0.0,0.0,84,0.00,CLR,FEW,0.04,WeatherDisplay:10.37,2013-03-23 04:55:00,
2013-03-22 22:00:00,31.8,27.5,30.26,SSE,158,0.0,0.0,84,0.00,CLR,FEW,0.04,WeatherDisplay:10.37,2013-03-23 05:00:00,
2013-03-22 22:05:00,31.8,27.8,30.26,SSE,158,0.0,0.0,85,0.00,CLR,FEW,0.04,WeatherDisplay:10.37,2013-03-23 05:05:00,
2013-03-22 22:10:00,31.8,27.8,30.25,SSE,158,0.0,0.0,85,0.00,CLR,FEW,0.04,WeatherDisplay:10.37,2013-03-23 05:10:00,
2013-03-22 22:15:00,31.8,27.8,30.25,SSE,158,0.0,0.0,85,0.00,CLR,FEW,0.04,WeatherDisplay:10.37,2013-03-23 05:15:00,
2013-03-22 22:20:00,31.8,27.8,30.26,SSE,158,0.0,0.0,85,0.00,CLR,FEW,0.04,WeatherDisplay:10.37,2013-03-23 05:20:00,
2013-03-22 22:25:00,31.8,27.8,30.26,SSE,158,0.0,0.0,85,0.00,CLR,FEW,0.04,WeatherDisplay:10.37,2013-03-23 05:25:00,
2013-03-22 22:30:00,31.8,27.8,30.25,SSE,158,0.0,0.0,85,0.00,CLR,FEW,0.04,WeatherDisplay:10.37,2013-03-23 05:30:00,
2013-03-22 22:35:00,31.8,27.8,30.25,SSE,158,0.0,0.0,85,0.00,CLR,FEW,0.04,WeatherDisplay:10.37,2013-03-23 05:35:00,
2013-03-22 22:40:00,31.8,27.8,30.26,SSE,158,0.0,0.0,85,0.00,CLR,FEW,0.04,WeatherDisplay:10.37,2013-03-23 05:40:00,
2013-03-22 22:45:00,31.8,27.8,30.25,SSE,158,0.0,0.0,85,0.00,CLR,FEW,0.04,WeatherDisplay:10.37,2013-03-23 05:45:00,
2013-03-22 22:50:00,31.8,28.1,30.26,SSE,158,0.0,0.0,86,0.00,CLR,FEW,0.04,WeatherDisplay:10.37,2013-03-23 05:50:00,
2013-03-22 22:55:00,31.6,27.9,30.26,SSE,158,0.0,0.0,86,0.00,CLR,FEW,0.04,WeatherDisplay:10.37,2013-03-23 05:55:00,
2013-03-22 23:00:00,31.6,27.9,30.25,SSE,158,0.0,0.0,86,0.00,CLR,FEW,0.04,WeatherDisplay:10.37,2013-03-23 06:00:00,
2013-03-22 23:05:00,31.3,27.6,30.26,SSE,158,0.0,0.0,86,0.00,CLR,FEW,0.04,WeatherDisplay:10.37,2013-03-23 06:05:00,
2013-03-22 23:10:00,31.3,27.6,30.26,SSE,158,0.0,0.0,86,0.00,CLR,FEW,0.04,WeatherDisplay:10.37,2013-03-23 06:10:00,
2013-03-22 23:15:00,31.3,27.6,30.27,SSE,158,0.0,0.0,86,0.00,CLR,FEW,0.04,WeatherDisplay:10.37,2013-03-23 06:15:00,
2013-03-22 23:20:00,31.3,27.6,30.27,SSE,158,0.0,0.0,86,0.00,CLR,FEW,0.04,WeatherDisplay:10.37,2013-03-23 06:20:00,
2013-03-22 23:25:00,31.3,27.6,30.27,SSE,158,0.0,0.0,86,0.00,CLR,FEW,0.04,WeatherDisplay:10.37,2013-03-23 06:25:00,
2013-03-22 23:30:00,31.3,27.6,30.27,SSE,158,0.0,0.0,86,0.00,CLR,FEW,0.04,WeatherDisplay:10.37,2013-03-23 06:30:00,
2013-03-22 23:35:00,31.3,27.6,30.27,SSE,158,0.0,0.0,86,0.00,CLR,FEW,0.04,WeatherDisplay:10.37,2013-03-23 06:35:00,
2013-03-22 23:40:00,31.3,27.6,30.27,SSE,158,0.0,0.0,86,0.00,CLR,FEW,0.04,WeatherDisplay:10.37,2013-03-23 06:40:00,
2013-03-22 23:45:00,31.3,27.6,30.27,SSE,158,0.0,0.0,86,0.00,CLR,FEW,0.04,WeatherDisplay:10.37,2013-03-23 06:45:00,
2013-03-22 23:50:00,31.3,27.6,30.27,SSE,158,0.0,0.0,86,0.00,CLR,FEW,0.04,WeatherDisplay:10.37,2013-03-23 06:50:00,
2013-03-22 23:55:00,31.3,27.6,30.27,SSE,158,0.0,0.0,86,0.00,CLR,FEW,0.04,WeatherDisplay:10.37,2013-03-23 06:55:00,